[Iaude] MPEC C190: 2024 CJ6 [a=1.43,e=0.52,i=7.2,H=26.5]

mpec at cfa.harvard.edu mpec at cfa.harvard.edu
Thu Feb 15 14:07:46 EST 2024


M.P.E.C. 2024-C190                            Issued 2024 February 15, 19:06 UT

     The Minor Planet Electronic Circulars contain information on unusual
         minor planets, routine data on comets and natural satellites,
         and occasional editorial announcements.  They are published
    on behalf of Division F of the International Astronomical Union by the
          Minor Planet Center, Smithsonian Astrophysical Observatory,
                          Cambridge, MA 02138, U.S.A.
			  
             Prepared using the Tamkin Foundation Computer Network

                              MPC at CFA.HARVARD.EDU
            URL https://www.minorplanetcenter.net/    ISSN 1523-6714

                                    2024 CJ6                                    


Observations:
     K24C06J* C2024 02 14.35293409 01 30.292+09 15 37.40         20.77wXEC190F52
     K24C06J  C2024 02 14.36458409 01 24.357+09 16 56.74         20.74wXEC190F52
     K24C06J  C2024 02 14.37624509 01 18.394+09 18 16.31         20.54GVEC190F52
     K24C06J  C2024 02 14.50878909 00 08.908+09 33 34.17         20.18GVEC190F51
     K24C06J  C2024 02 14.50943409 00 08.568+09 33 38.33         20.53GVEC190F51
     K24C06J KC2024 02 14.86436908 57 22.96 +10 17 29.2          20.7 GVEC190L01
     K24C06J KC2024 02 14.86734108 57 21.20 +10 17 53.6          20.5 GVEC190L01
     K24C06J KC2024 02 14.87034208 57 19.45 +10 18 18.5          20.3 GVEC190L01
     K24C06J KC2024 02 14.87371308 57 17.47 +10 18 46.1          20.4 GVEC190L01
     K24C06J KC2024 02 14.92760408 56 45.62 +10 26 16.0          20.0 GVEC190104
     K24C06J KC2024 02 14.93339908 56 42.10 +10 27 04.5          20.3 GVEC190104
     K24C06J KC2024 02 14.93919208 56 38.56 +10 27 52.8                VEC190104
     K24C06J KB2024 02 14.98418 08 56 11.20 +10 34 07.1          20.4 GVEC190204
     K24C06J KB2024 02 14.99607 08 56 03.81 +10 35 47.7                VEC190204
     K24C06J KB2024 02 15.00786 08 55 56.46 +10 37 28.3                VEC190204
     K24C06J KB2024 02 15.02560608 55 46.82 +10 40 08.4          19.7 GXEC190958
     K24C06J KB2024 02 15.03053308 55 43.71 +10 40 51.6          19.7 GXEC190958
     K24C06J KB2024 02 15.03541308 55 40.59 +10 41 33.3          19.6 GXEC190958
     K24C06J  C2024 02 15.29183608 53 18.512+11 21 58.72         20.86wXEC190F51
     K24C06J  C2024 02 15.30307408 53 10.539+11 23 49.61         20.70wXEC190F51
     K24C06J  C2024 02 15.31438708 53 02.466+11 25 41.20         20.65wXEC190F51

Observer details:
104 San Marcello Pistoiese.  Observers P. Bacci, M. Maestripieri.  Measurers
    P. Bacci, L. Tesi, G. Fagioli.  0.60-m F4 Reflector + CCD.
204 Schiaparelli Observatory.  Observer L. Buzzi.  0.84-m f/3.5 reflector +
    CMO.
958 Observatoire de Dax.  Observer P. Dupouy.  0.50-m f/4.5 Reflector + CMO.
F51 Pan-STARRS 1, Haleakala.  Observers J. Herman, T. Lowe, P. Minguez, A.
    Schultz, I. Smith.  Measurers K. Chambers, T. de Boer, J. Fairlamb, H.
    Gao, M. Huber, C.-C. Lin, E. Magnier, Y. Ramanjooloo, R. Wainscoat, R.
    Weryk.  1.8-m Ritchey-Chretien + CCD.
F52 Pan-STARRS 2, Haleakala.  Observers J. Herman, T. Lowe, P. Minguez, A.
    Schultz, I. Smith.  Measurers K. Chambers, T. de Boer, J. Fairlamb, H.
    Gao, M. Huber, C.-C. Lin, E. Magnier, Y. Ramanjooloo, R. Wainscoat, R.
    Weryk.  1.8-m Ritchey-Chretien + CCD.
L01 Visnjan Observatory, Tican.  Observer K. Korlevic.  1.0-m f/2.9 reflector
    + CCD.

Orbital elements:
2024 CJ6                                                 Earth MOID = 0.0055 AU
Epoch 2024 Mar. 31.0 TT = JDT 2460400.5                 Veres                   
M 353.73837              (2000.0)            P               Q                  
n   0.57444095     Peri.   85.36459     -0.60555136     +0.79291916             
a   1.4331967      Node   147.06240     -0.77058261     -0.56297426             
e   0.5155237      Incl.    7.15526     -0.19877122     -0.23310768             
P   1.72           H   26.56          G   0.15           U   8                  
Residuals in seconds of arc
240214 F52  0.2+  0.1-    240214 L01  0.1-  0.1+    240215 204  0.0   0.2-
240214 F52  0.0   0.0     240214 L01  0.0   0.0     240215 958  0.4+  0.4-
240214 F52  0.0   0.0     240214 104  0.3-  0.1+    240215 958  0.4+  0.4+
240214 F51  0.0   0.3+    240214 104  0.0   0.1+    240215 958  0.1-  0.0
240214 F51  0.0   0.1-    240214 104  0.1+  0.1-    240215 F51  0.2+  0.0
240214 L01  0.2-  0.2-    240214 204  0.2+  0.1+    240215 F51  0.2-  0.2+
240214 L01  0.4-  0.2-    240214 204  0.1+  0.3-    240215 F51  0.1+  0.1-

Ephemeris:
2024 CJ6                 a,e,i = 1.43, 0.52, 7                   q = 0.6943
Date    TT    R. A. (2000) Decl.     Delta      r    Elong.  Phase     V
2024 01 16    09 30 50.0 +02 25 26   0.3360  1.2827   148.7    23.5    25.8
...
2024 01 31    09 29 54.6 +02 17 42   0.1806  1.1581   161.9    15.3    24.0
...
2024 02 08    09 22 55.9 +03 49 15   0.1051  1.0895   168.5    10.4    22.5
...
2024 02 14    09 03 51.8 +08 38 53   0.05133 1.0377   168.4    11.0    20.9
2024 02 15    08 56 05.0 +10 38 15   0.04267 1.0291   166.4    13.1    20.5
2024 02 16    08 44 15.4 +13 36 21   0.03417 1.0205   162.8    16.6    20.2
...
2024 02 22    23 02 20.5 +21 41 32   0.02433 0.9689    34.1   145.1    26.0
...
2024 03 01    21 59 36.1 +05 57 43   0.09410 0.9019    18.2   159.9    32.1
...
2024 03 16    21 54 48.1 +01 58 54   0.2404  0.7893    27.5   144.4    30.4

M. P. C. Staff               (C) Copyright 2024 MPC           M.P.E.C. 2024-C190





More information about the Iaude mailing list